Location: Newark
(43.6583°N, 1.6617°E)
Time: 19:39:08
(UTC+00:00)

Courier 1B - Pass Details

Date: 02 September 2019
Orbit: 962 x 1209 km, 28.3° (Epoch: 15 October)

Event Time Altitude Azimuth Distance (km) Brightness Sun altitude
Rises 14:58:55 0° 244° (WSW) 4,047 11.7 36.0°
Reaches altitude 10° 15:02:24 10° 231° (SW) 3,051 11.4 35.5°
Maximum altitude 15:08:05 24° 181° (S) 2,142 9.9 34.5°
Drops below altitude 10° 15:13:33 10° 131° (SE) 2,913 9.9 33.6°
Sets 15:16:47 0° 118° (ESE) 3,824 10.3 33.1°
